Weather History for Concordia, KS

Change the Weather History Date:

Thursday, February 6, 2014

  Actual Average Record
Temperature  
Mean Temperature 1 °F 30 °F  
Max Temperature 9 °F 41 °F 72 °F (2009)
Min Temperature -7 °F 20 °F -10 °F (1905)
Degree Days  
Heating Degree Days 64 35  
Month to date heating degree days 320 210  
Since 1 July heating degree days 3725 3514  
Cooling Degree Days 0 0  
Month to date cooling degree days 0 0  
Year to date cooling degree days 0 0  
Moisture  
Dew Point -7 °F    
Average Humidity 69    
Maximum Humidity 83    
Minimum Humidity 55    
Precipitation  
Precipitation 0.00 in 0.02 in 1.21 in (1928)
Month to date precipitation 0.47 0.15  
Year to date precipitation 0.90 0.73  
Snow  
Snow 0.00 in 0.20 in 2.90 in (1997)
Month to date snowfall 5.8 1.3  
Year to date snowfall 11.4 7.0  
Since 1 July snowfall 17.7 13.5  
Snow Depth 8.00 in    
Sea Level Pressure  
Sea Level Pressure 30.63 in    
Wind  
Wind Speed 6 mph (West)    
Max Wind Speed 10 mph    
Max Gust Speed 14 mph    
Visibility 10 miles    
Events      
T = Trace of Precipitation, MM = Missing Value Source: NWS Daily Summary

Daily Weather History Graph

Daily Weather History Graph

Search for Another Location

Airport:

Trip Planner

Search our weather history database for the weather conditions in past years. The results will help you decide how hot, cold, wet, or windy it might be!

Date:

Astronomy

Feb. 06, 2014 Rise Set
Actual Time 7:33 AM CST 5:56 PM CST
Civil Twilight 7:05 AM CST 6:24 PM CST
Nautical Twilight 6:33 AM CST 6:56 PM CST
Astronomical Twilight 6:01 AM CST 7:28 PM CST
Moon 11:29 AM CST (2/6) 12:50 AM CST (2/6)
Length of Visible Light 11h 19m
Length of Day
10h 23m
Waxing Crescent, 49% of the Moon is Illuminated
Feb 6
Waxing Crescent
Feb 6
First Quarter
Feb 14
Full
Feb 22
Last Quarter
Mar 1
New

Hourly Weather History & Observations

Time (CST) Temp. Windchill Dew Point Humidity Pressure Visibility Wind Dir Wind Speed Gust Speed Precip Events Conditions
12:55 AM 1.9 °F -11.8 °F -9.0 °F 60% 30.73 in 10.0 mi North 8.1 mph - N/A   Mostly Cloudy
1:55 AM -0.9 °F -12.7 °F -9.9 °F 66% 30.72 in 10.0 mi North 5.8 mph - N/A   Clear
2:55 AM -2.0 °F -13.9 °F -11.0 °F 66% 30.73 in 10.0 mi NW 5.8 mph - N/A   Clear
3:55 AM -4.0 °F -16.3 °F -11.0 °F 72% 30.73 in 10.0 mi NW 5.8 mph - N/A   Clear
4:55 AM -5.1 °F -20.4 °F -11.0 °F 76% 30.73 in 10.0 mi West 8.1 mph - N/A   Partly Cloudy
5:55 AM -7.1 °F -21.4 °F -11.9 °F 79% 30.72 in 10.0 mi WNW 6.9 mph - N/A   Clear
6:55 AM -5.1 °F -20.4 °F -11.0 °F 76% 30.72 in 10.0 mi WNW 8.1 mph - N/A   Overcast
7:55 AM -5.1 °F -19.1 °F -11.0 °F 76% 30.73 in 10.0 mi West 6.9 mph - N/A   Overcast
8:55 AM -2.9 °F -13.3 °F -9.9 °F 72% 30.73 in 10.0 mi WNW 4.6 mph - N/A   Partly Cloudy
9:55 AM -0.0 °F -11.6 °F -9.0 °F 66% 30.72 in 10.0 mi NNW 5.8 mph - N/A   Overcast
10:55 AM 3.0 °F -8.0 °F -9.0 °F 57% 30.71 in 10.0 mi WNW 5.8 mph - N/A   Overcast
11:55 AM 5.0 °F -5.6 °F -7.1 °F 58% 30.68 in 10.0 mi West 5.8 mph - N/A   Overcast
12:55 PM 6.1 °F -7.8 °F -6.0 °F 58% 30.64 in 10.0 mi WNW 9.2 mph - N/A   Overcast
1:55 PM 7.0 °F -4.5 °F -6.0 °F 55% 30.61 in 10.0 mi WNW 6.9 mph - N/A   Overcast
2:55 PM 7.0 °F -4.5 °F -6.0 °F 55% 30.59 in 10.0 mi WSW 6.9 mph - N/A   Overcast
3:55 PM 8.1 °F -0.5 °F -6.0 °F 53% 30.57 in 10.0 mi West 4.6 mph - N/A   Overcast
4:55 PM 7.0 °F 0.1 °F -6.0 °F 55% 30.55 in 10.0 mi West 3.5 mph - N/A   Overcast
5:55 PM 7.0 °F 0.1 °F -7.1 °F 53% 30.55 in 10.0 mi WSW 3.5 mph - N/A   Overcast
6:55 PM 6.1 °F - -4.0 °F 63% 30.54 in 10.0 mi Calm Calm - N/A   Overcast
7:55 PM 6.1 °F -4.3 °F -5.1 °F 60% 30.54 in 10.0 mi SW 5.8 mph - N/A   Overcast
8:55 PM 6.1 °F -5.6 °F -2.9 °F 67% 30.54 in 10.0 mi SSW 6.9 mph - N/A   Overcast
9:55 PM 6.1 °F -2.8 °F -2.9 °F 67% 30.53 in 10.0 mi SW 4.6 mph - N/A   Overcast
10:55 PM 6.1 °F -4.3 °F -2.9 °F 67% 30.50 in 10.0 mi SSW 5.8 mph - N/A   Overcast
11:55 PM 5.0 °F -4.1 °F -2.9 °F 70% 30.47 in 10.0 mi SSW 4.6 mph - N/A   Overcast